Portada
METAR-TAF:

METAR-TAF

Aeropuertos :

Algeciras, España

Helipuerto de Algeciras

latitud: 36-07-44N, longitud: 05-26-28W, altitud: 30 m

Observación

El informe se hizo hace 34 minutos, a las 19:00 UTC
Viento 5 kt del este
Temperatura 16°C
Humedad 94%
Presión 1014 hPa
Visibilidad: 9000 m
Escasas nubes a una altura de 4900 ft

METAR: LEAG 291900Z AUTO 08005KT 9000 FEW049 16/15 Q1014

Hora: 21:34 (19:34 UTC)


TAF: falta

Observaciones y pronósticos meteorológicos de más de 4000 aeropuertos (mensajes METAR y TAF).

Los puntos amarillos y rojos representan las estaciones disponibles.

Ponga el ratón en el punto deseado para ver el nombre de la estación.

Haga clic para ver las observaciones y los pronósticos meteorológicos.

Para cambiar el mapa : haga clic en los botones verdes con una cruz de color negro para hacer un zoom, en el botón verde con un guión para alejar o en las flechas verdes para mapas adyacentes.


METAR-TAF: